This is the latest recevied weather packets stored in our database for station/object KD2SIG. If no packets are shown the sender has not sent any weather packets the latest 1 day(s).
| Time | Temp. | Humidity | Pressure | Rain* | Wind** | Luminosity | Snow |
|---|---|---|---|---|---|---|---|
| 1778103627 | 8.89° C | 85% | 1010.4 hPa | 0 mm | - | 109 W/m² | - |
| 1778103325 | 8.89° C | 85% | 1010.3 hPa | 0 mm | - | 88 W/m² | - |
| 1778101503 | 8.89° C | 86% | 1009.9 hPa | 0 mm | - | 138 W/m² | - |
| 1778101200 | 8.89° C | 86% | 1010 hPa | 0 mm | - | 89 W/m² | - |
| 1778100592 | 8.89° C | 87% | 1010 hPa | 0 mm | - | 121 W/m² | - |
| 1778098169 | 8.33° C | 88% | 1009.9 hPa | 0 mm | - | 218 W/m² | - |
| 1778097562 | 8.33° C | 89% | 1009.8 hPa | 0 mm | - | 158 W/m² | - |
| 1778095743 | 8.33° C | 91% | 1009.9 hPa | 0 mm | - | 246 W/m² | - |
| 1778095440 | 8.33° C | 92% | 1010 hPa | 0 mm | - | 187 W/m² | - |
| 1778095137 | 7.78° C | 92% | 1009.9 hPa | 0 mm | - | 191 W/m² | - |
| 1778094833 | 7.78° C | 92% | 1010.1 hPa | 0 mm | - | 144 W/m² | - |
| 1778094530 | 7.78° C | 93% | 1010.3 hPa | 0 mm | - | 107 W/m² | - |
| 1778092407 | 7.78° C | 94% | 1010.1 hPa | 0 mm | - | 145 W/m² | - |
| 1778092105 | 7.78° C | 94% | 1010.2 hPa | 0 mm | - | 111 W/m² | - |
| 1778091197 | 7.78° C | 95% | 1009.8 hPa | 0 mm | - | 189 W/m² | - |
| 1778090894 | 7.78° C | 95% | 1009.8 hPa | 0 mm | - | 192 W/m² | - |
| 1778088772 | 7.22° C | 96% | 1009.6 hPa | 0 mm | - | 153 W/m² | - |
| 1778087863 | 7.22° C | 97% | 1009.6 hPa | 0 mm | - | 127 W/m² | - |
| 1778087560 | 7.22° C | 97% | 1009.6 hPa | 0 mm | - | 209 W/m² | - |
| 1778087258 | 7.22° C | 97% | 1009.5 hPa | 0 mm | - | 159 W/m² | - |
| 1778085440 | 6.67° C | 97% | 1009.6 hPa | 0 mm | - | 167 W/m² | - |
| 1778085135 | 7.22° C | 97% | 1009.7 hPa | 0 mm | - | 104 W/m² | - |
| 1778084226 | 6.67° C | 97% | 1009.9 hPa | 0 mm | - | 93 W/m² | - |
| 1778083923 | 7.22° C | 97% | 1010 hPa | 0 mm | - | 194 W/m² | - |
| 1778083317 | 6.67° C | 97% | 1010 hPa | 0 mm | - | 147 W/m² | - |
* Rain latest hour (hover to see other rain measurements)
** Current wind speed in m/s (hover to see current wind gust speed)